Flag for France Weather past 2 weeks in Paris, France

Now
68 °F

Clear.


Feels Like: 68 °F
Forecast: 63 / 81 °F
Wind: 2 mph from South

Location: Villacoublay

Current Time: Sep 19, 2014 at 12:04:14 AM

Latest Report: Sep 18, 2014 at 11:30 PM


Visibility: N/A

Pressure: 29.83 "Hg

Humidity: 78%

Dew point: 61 °F

Location of ParisLocation

Historic Weather in Paris — Graph

°F

Paris temperature yesterday

Maximum temperature yesterday: 79 °F (at 1:30 PM)
Minimum temperature yesterday: 63 °F (at 6:30 AM)
Average temperature yesterday: 71 °F

Past Weeks' High & Low Weather Summary

 TemperatureHumidityPressure
High79 °F (Sep 17, 5:00 PM)94% (Sep 6, 6:00 AM)30.18 "Hg (Sep 6, 6:00 AM)
Low54 °F (Sep 10, 5:00 AM)36% (Sep 9, 5:00 PM)29.74 "Hg (Sep 18, 7:30 AM)
Average66 °F68%30.00 "Hg
* Reported Sep 3 11:00 PM — Sep 18 11:00 PM, Paris, Weather by CustomWeather, © 2014

Note: Actual official high and low records may vary slightly from our data, if they occured in-between our weather recording intervals... More about our weather records

Advertising

Paris weather history for previous 24 hours

 ConditionsComfort  
Time TempWeatherWind HumidityBarometerVisibility
11:00 PM
Sep 18
70 °FClear.3 mph73%29.83 "HgN/A
10:30 PM70 °FClear.2 mph69%29.83 "HgN/A
10:00 PM70 °FClear.2 mph69%29.83 "HgN/A
9:30 PM72 °FClear.3 mph65%29.83 "HgN/A
9:00 PM72 °FClear.2 mph65%29.83 "HgN/A
8:30 PM72 °FClear.3 mph65%29.80 "HgN/A
8:00 PM73 °FClear.2 mph61%29.80 "HgN/A
7:30 PM73 °FClear.2 mph61%29.80 "HgN/A
7:00 PM75 °FClear.3 mph57%29.80 "HgN/A
6:30 PM75 °FClear.5 mph54%29.80 "HgN/A
6:00 PM77 °FClear.6 mph51%29.80 "HgN/A
5:30 PM77 °FClear.6 mph51%29.80 "HgN/A
5:00 PM77 °FThundershowers. Cloudy.8 mph51%29.77 "HgN/A
4:30 PM77 °FThunderstorms. Partly sunny.9 mph51%29.77 "HgN/A
4:00 PM77 °FThundershowers. Partly sunny.6 mph54%29.77 "HgN/A
3:30 PM79 °FPartly sunny.5 mph54%29.77 "HgN/A
3:00 PM79 °FScattered clouds.6 mph54%29.77 "HgN/A
2:30 PM79 °FBroken clouds.5 mph54%29.77 "HgN/A
2:00 PM79 °FPassing clouds.7 mph54%29.80 "HgN/A
1:30 PM79 °FClear.7 mph51%29.80 "HgN/A
1:00 PM77 °FClear.7 mph54%29.80 "HgN/A
12:30 PM75 °FClear.8 mph57%29.80 "HgN/A
12:00 PM73 °FClear.8 mph61%29.80 "HgN/A
11:30 AM73 °FClear.6 mph65%29.80 "HgN/A
11:00 AM72 °FClear.6 mph65%29.80 "HgN/A
10:30 AM72 °FClear.2 mph69%29.77 "HgN/A
10:00 AM70 °FClear.5 mph73%29.77 "HgN/A
9:30 AM68 °FClear.5 mph78%29.77 "HgN/A
9:00 AM64 °FClear.3 mph88%29.77 "HgN/A
8:30 AM64 °FClear.3 mph88%29.77 "HgN/A
8:00 AM64 °FClear.2 mph83%29.77 "HgN/A
7:30 AM64 °FClear.2 mph83%29.74 "HgN/A
7:00 AM63 °FClear.1 mph88%29.77 "HgN/A
6:30 AM63 °FClear.2 mph88%29.77 "HgN/A
6:00 AM64 °FClear.3 mph83%29.77 "HgN/A
5:30 AM64 °FClear.3 mph83%29.77 "HgN/A
5:00 AM64 °FClear.3 mph83%29.77 "HgN/A
4:30 AM64 °FClear.No wind83%29.77 "HgN/A
4:00 AM64 °FClear.2 mph83%29.77 "HgN/A
3:30 AM64 °FClear.1 mph83%29.77 "HgN/A
3:00 AM66 °FClear.2 mph78%29.77 "HgN/A
2:30 AM66 °FClear.2 mph78%29.77 "HgN/A
2:00 AM66 °FClear.5 mph78%29.77 "HgN/A
1:30 AM66 °FClear.3 mph78%29.77 "HgN/A
1:00 AM68 °FClear.3 mph73%29.77 "HgN/A
12:30 AM68 °FClear.3 mph73%29.77 "HgN/A
12:00 AM70 °FClear.5 mph69%29.77 "HgN/A
Weather by CustomWeather, © 2014

See weather overviewHow to use our weather pages